Location: Bow
(51.5261°N, 0.0167°W)
Time: 16:21:20
(UTC+00:00)

ATLAS CENTAUR R/B - Visible Passes

Search period start: 30 November 2021 00:00
Search period end: 10 December 2021 00:00
Orbit: 452 x 689 km, 64.7° (Epoch: 28 November)

Date Brightness Start Highest point End Pass type
(mag) Time Alt. Az. Time Alt. Az. Time Alt. Az.
30 Nov 2.3 17:23:34 10° WSW 17:27:38 45° NW 17:31:11 15° NNE visible
30 Nov 3.7 19:04:25 10° WNW 19:07:18 19° NNW 19:07:18 19° NNW visible
01 Dec 2.7 17:25:28 10° WSW 17:29:25 36° NW 17:32:54 14° NNE visible
01 Dec 3.8 19:06:31 10° NW 19:09:00 17° NNW 19:09:00 17° NNW visible
02 Dec 3.0 17:27:27 10° W 17:31:16 30° NNW 17:34:35 14° NNE visible
02 Dec 3.9 19:08:35 10° NW 19:10:41 16° NNW 19:10:41 16° NNW visible
03 Dec 3.2 17:29:28 10° W 17:33:07 25° NNW 17:36:14 13° NNE visible
03 Dec 4.0 19:10:36 10° NW 19:12:21 15° NNW 19:12:21 15° NNW visible
04 Dec 3.4 17:31:33 10° WNW 17:35:00 22° NNW 17:37:53 13° NNE visible
04 Dec 4.1 19:12:32 10° NW 19:14:00 14° NNW 19:14:00 14° NNW visible
05 Dec 3.5 17:33:38 10° WNW 17:36:54 20° NNW 17:39:31 13° NNE visible
05 Dec 4.1 19:14:23 10° NNW 19:15:38 14° NNW 19:15:38 14° NNW visible
06 Dec 3.6 17:35:43 10° WNW 17:38:50 18° NNW 17:41:09 13° NNE visible
06 Dec 4.1 19:16:10 10° NNW 19:17:15 14° NNW 19:17:15 14° NNW visible
07 Dec 3.6 17:37:47 10° NW 17:40:46 17° N 17:42:46 14° NNE visible
07 Dec 4.1 19:17:53 10° NNW 19:18:53 14° NNW 19:18:53 14° NNW visible
08 Dec 3.6 17:39:48 10° NW 17:42:43 16° N 17:44:24 14° NNE visible
08 Dec 4.1 19:19:33 10° NNW 19:20:30 14° NNW 19:20:30 14° NNW visible
09 Dec 3.6 17:41:45 10° NW 17:44:39 16° N 17:46:01 15° NNE visible
09 Dec 4.1 19:21:11 10° NNW 19:22:08 14° NNW 19:22:08 14° NNW visible
